Home > Weather > Al-Jamiliyah > Past weeks

Flag for Qatar Weather for the Past 2 Weeks in Al-Jamiliyah, Qatar

Now
68 °F

Sunny.


Feels Like: 68 °F
Forecast: 56 / 71 °F
Wind: 10 mph from Northwest

Location: Al Udeid

Current Time: Feb 10, 2016 at 6:15:54 PM

Latest Report: Feb 10, 2016 at 4:58 PM


Visibility: N/A

Pressure: 30.03 "Hg

Humidity: 41%

Dew point: 44 °F

Location of Al-JamiliyahLocation

Historic Weather in Al-Jamiliyah — Graph

°F

Al-Jamiliyah Temperature Yesterday

Maximum temperature yesterday: 71 °F (at 12:58 PM)
Minimum temperature yesterday: 55 °F (at 11:58 PM)
Average temperature yesterday: 63 °F

High & Low Weather Summary for the Past Weeks

 TemperatureHumidityPressure
High78 °F (Feb 8, 12:58 PM)100% (Feb 6, 2:03 AM)30.35 "Hg (Feb 6, 2:03 AM)
Low45 °F (Jan 31, 1:58 AM)18% (Feb 8, 12:58 PM)29.94 "Hg (Feb 7, 2:58 PM)
Average60 °F61%30.15 "Hg
* Reported Jan 26 4:58 PM — Feb 10 4:58 PM, Al-Jamiliyah, Weather by CustomWeather, © 2016

Note: Actual official high and low records may vary slightly from our data, if they occured in-between our weather recording intervals... More about our weather records

Advertising

Al-Jamiliyah Weather History for the Previous 24 Hours

 ConditionsComfort  
Time TempWeatherWind HumidityBarometerVisibility
4:58 PM
Wed, Feb 10
68 °FSunny.10 mph41%30.03 "HgN/A
3:58 PM70 °FSunny.10 mph39%30.03 "HgN/A
2:58 PM71 °FSunny.13 mph39%30.03 "HgN/A
1:58 PM70 °FClear.15 mph39%30.03 "HgN/A
12:58 PM70 °FClear.16 mph42%30.06 "HgN/A
11:58 AM68 °FClear.15 mph47%30.09 "HgN/A
10:58 AM67 °FClear.16 mph52%30.13 "HgN/A
9:58 AM64 °FClear.21 mph55%30.14 "HgN/A
8:58 AM61 °FClear.22 mph62%30.14 "HgN/A
7:58 AM57 °FClear.15 mph72%30.15 "HgN/A
6:58 AM54 °FClear.10 mph80%30.13 "HgN/A
5:58 AM51 °FClear.9 mph84%30.11 "HgN/A
4:58 AM51 °FClear.8 mph79%30.10 "HgN/A
3:58 AM54 °FClear.13 mph74%30.09 "HgN/A
2:58 AM54 °FClear.10 mph74%30.09 "HgN/A
1:58 AM54 °FClear.9 mph69%30.09 "HgN/A
12:58 AM55 °FSunny.13 mph67%30.09 "HgN/A
11:58 PM
Tue, Feb 9
55 °FSunny.12 mph64%30.11 "HgN/A
10:58 PM56 °FSunny.8 mph60%30.13 "HgN/A
9:58 PM57 °FSunny.15 mph62%30.11 "HgN/A
8:58 PM59 °FSunny.17 mph57%30.14 "HgN/A
7:58 PM60 °FSunny.16 mph55%30.14 "HgN/A
6:58 PM61 °FSunny.18 mph52%30.14 "HgN/A
Weather by CustomWeather, © 2016

See weather overviewHow to use our weather pages